Flag for Saudi Arabia Weather past 2 weeks in Makkah, Saudi Arabia

Now
99 °F

Sunny.


Feels Like: 104 °F
Forecast: 82 / 104 °F
Wind: 2 mph from West

Location: Mecca Airport


UV Index: 10 (Very high)

Visibility: 10 mi


Pressure: 29.80 "Hg

Humidity: 37%

Dew point: 68 °F

Location of MakkahLocation

Historic Weather in Makkah

°F

Makkah temperature yesterday

Maximum temperature yesterday: 104 °F (at 2:00 PM)
Minimum temperature yesterday: 84 °F (at 5:00 AM)
Average temperature yesterday: 93 °F

Past Weeks' High & Low Weather Summary

 TemperatureHumidityPressure
High108 °F (Apr 18, 12:00 PM)66% (Apr 8, 5:00 AM)30.09 "Hg (Apr 8, 5:00 AM)
Low68 °F (Apr 4, 6:00 AM)13% (Apr 4, 2:00 PM)29.71 "Hg (Apr 17, 4:00 PM)
Average89 °F44%29.83 "Hg
* Reported Apr 3 5:00 PM — Apr 18 5:00 PM, Makkah, Weather by CustomWeather, © 2014

Note: Actual official high and low records may vary slightly from our data, if they occured in-between our weather recording intervals... More about our weather records

Advertising

Historic Weather Conditions — Data for Previous 24 hours

 ConditionsComfort  
Time TempWeatherWind HumidityBarometerVisibility
5:00 PM
Apr 18
102 °FSunny.2 mph33%29.77 "Hg10 mi
4:00 PM102 °FSunny.2 mph35%29.77 "Hg10 mi
3:00 PM106 °FSunny.2 mph30%29.77 "Hg10 mi
2:00 PM106 °FSunny.2 mph26%29.77 "Hg10 mi
1:00 PM108 °FSunny.3 mph25%29.80 "Hg10 mi
12:00 PM108 °FSunny.2 mph28%29.80 "Hg10 mi
11:00 AM104 °FSunny.2 mph33%29.83 "Hg10 mi
10:00 AM99 °FSunny.No wind39%29.83 "Hg10 mi
9:00 AM95 °FPassing clouds.No wind47%29.83 "HgN/A
8:00 AM90 °FPassing clouds.No wind46%29.80 "HgN/A
7:00 AM88 °FScattered clouds.No wind43%29.80 "HgN/A
6:00 AM86 °FScattered clouds.No wind49%29.80 "HgN/A
4:00 AM88 °FClear.No wind43%29.77 "Hg10 mi
3:00 AM88 °FClear.No wind46%29.77 "Hg10 mi
2:00 AM90 °FClear.No wind46%29.77 "Hg10 mi
1:00 AM90 °FClear.No wind43%29.77 "Hg10 mi
12:00 AM90 °FClear.No wind46%29.80 "Hg10 mi
11:00 PM
Apr 17
91 °FClear.No wind46%29.80 "Hg10 mi
10:00 PM91 °FClear.No wind46%29.80 "Hg10 mi
9:00 PM91 °FClear.No wind46%29.80 "Hg10 mi
8:00 PM91 °FClear.3 mph46%29.77 "Hg10 mi
7:00 PM93 °FPassing clouds.5 mph41%29.77 "HgN/A
6:00 PM97 °FScattered clouds.5 mph39%29.74 "HgN/A
Weather by CustomWeather, © 2014

See weather overview